[Date Prev][Date Next][Thread Prev][Thread Next] - [Date Index][Thread Index][Author Index]
2 Line ISS Keps 2-20
- Subject: [sarex] 2 Line ISS Keps 2-20
- From: "Dave Larsen PhD" <doc@xxxxxxxxxxx>
- Date: Wed, 20 Feb 2002 02:15:23 -0800
ISS
1 25544U 98067A 02051.08520645 .00092654 00000-0 10293-2 0 969
2 25544 51.6358 281.4943 0004607 98.7371 65.3301 15.62126239185765
----
Via the sarex mailing list at AMSAT.ORG courtesy of AMSAT-NA.
To unsubscribe, send "unsubscribe sarex" to Majordomo@amsat.org
AMSAT Home